QPF
0.00 0.00 0.00 0.00 0.00 0.00 0.00 0.00 0.01 0.01 0.03 0.03 0.04 0.05 0.05 0.04 0.04 0.04 0.04 0.03 0.04 0.03 0.04 0.05 0.07 0.07 0.07 0.07 0.08 0.08 0.10 0.13 0.15 0.14 0.13 0.10 0.09 0.09 0.10 0.16 0.22 0.23 0.20
0.00 0.01 0.01 0.00 0.00 0.00 0.00 0.00 0.01 0.01 0.02 0.03 0.04 0.04 0.05 0.05 0.05 0.05 0.05 0.04 0.05 0.04 0.04 0.05 0.07 0.06 0.07 0.07 0.06 0.07 0.09 0.14 0.17 0.17 0.15 0.15 0.16 0.15 0.12 0.13 0.14 0.16 0.18
0.02 0.03 0.01 0.00 0.00 0.00 0.01 0.01 0.01 0.02 0.02 0.02 0.03 0.04 0.06 0.06 0.06 0.07 0.07 0.06 0.08 0.09 0.08 0.08 0.08 0.06 0.05 0.07 0.07 0.06 0.08 0.12 0.16 0.17 0.14 0.12 0.15 0.17 0.17 0.15 0.16 0.17 0.20
0.00 0.01 0.00 0.00 0.00 0.00 0.01 0.01 0.02 0.03 0.02 0.02 0.02 0.04 0.06 0.07 0.06 0.06 0.06 0.07 0.09 0.12 0.12 0.13 0.09 0.06 0.04 0.06 0.05 0.06 0.09 0.11 0.12 0.16 0.12 0.08 0.10 0.13 0.19 0.18 0.19 0.19 0.18
0.01 0.01 0.00 0.00 0.01 0.01 0.01 0.01 0.02 0.03 0.03 0.02 0.03 0.04 0.04 0.05 0.05 0.05 0.05 0.07 0.08 0.13 0.16 0.18 0.12 0.06 0.05 0.05 0.05 0.07 0.07 0.10 0.12 0.14 0.12 0.10 0.10 0.09 0.11 0.15 0.16 0.17 0.16
0.00 0.00 0.01 0.01 0.01 0.01 0.01 0.02 0.03 0.03 0.03 0.03 0.03 0.04 0.04 0.05 0.05 0.06 0.06 0.07 0.07 0.08 0.13 0.15 0.12 0.07 0.06 0.07 0.07 0.07 0.07 0.11 0.13 0.11 0.12 0.11 0.11 0.10 0.09 0.10 0.12 0.13 0.12
0.00 0.01 0.02 0.02 0.01 0.01 0.01 0.01 0.01 0.03 0.02 0.02 0.03 0.04 0.05 0.06 0.06 0.06 0.06 0.06 0.05 0.04 0.06 0.09 0.09 0.08 0.08 0.09 0.09 0.09 0.09 0.10 0.11 0.13 0.11 0.10 0.10 0.11 0.09 0.08 0.09 0.10 0.11
0.00 0.00 0.01 0.01 0.01 0.01 0.01 0.01 0.01 0.03 0.04 0.03 0.03 0.04 0.06 0.08 0.09 0.09 0.08 0.07 0.05 0.03 0.03 0.03 0.04 0.04 0.04 0.05 0.08 0.09 0.09 0.08 0.08 0.10 0.15 0.13 0.12 0.13 0.12 0.09 0.08 0.09 0.09
0.00 0.00 0.00 0.00 0.00 0.01 0.00 0.01 0.02 0.03 0.05 0.04 0.03 0.03 0.03 0.04 0.06 0.06 0.05 0.05 0.05 0.03 0.02 0.02 0.02 0.03 0.03 0.04 0.05 0.07 0.07 0.06 0.06 0.07 0.12 0.17 0.14 0.14 0.12 0.12 0.10 0.08 0.08
0.00 0.00 0.00 0.00 0.01 0.02 0.01 0.01 0.01 0.02 0.03 0.04 0.03 0.02 0.02 0.03 0.04 0.05 0.05 0.04 0.04 0.04 0.03 0.02 0.02 0.02 0.03 0.03 0.04 0.05 0.05 0.05 0.04 0.04 0.07 0.10 0.11 0.13 0.14 0.12 0.10 0.09 0.08
0.01 0.00 0.00 0.00 0.01 0.02 0.01 0.01 0.01 0.01 0.02 0.03 0.04 0.03 0.04 0.03 0.04 0.04 0.03 0.03 0.03 0.03 0.03 0.02 0.02 0.02 0.02 0.02 0.03 0.03 0.03 0.03 0.04 0.04 0.04 0.05 0.07 0.10 0.13 0.13 0.11 0.10 0.10
0.01 0.01 0.00 0.00 0.01 0.02 0.02 0.01 0.00 0.01 0.01 0.02 0.03 0.03 0.04 0.02 0.02 0.03 0.03 0.03 0.04 0.03 0.03 0.03 0.03 0.02 0.01 0.02 0.03 0.03 0.03 0.03 0.04 0.05 0.05 0.05 0.06 0.08 0.10 0.14 0.12 0.11 0.12
0.01 0.00 0.00 0.01 0.03 0.06 0.03 0.01 0.00 0.01 0.01 0.01 0.02 0.02 0.03 0.03 0.02 0.03 0.04 0.04 0.05 0.05 0.03 0.03 0.03 0.02 0.02 0.02 0.02 0.03 0.04 0.04 0.04 0.05 0.05 0.05 0.05 0.07 0.08 0.09 0.11 0.10 0.09
0.02 0.01 0.02 0.02 0.04 0.06 0.02 0.02 0.01 0.01 0.01 0.01 0.01 0.02 0.02 0.02 0.03 0.03 0.03 0.03 0.04 0.04 0.03 0.03 0.02 0.02 0.02 0.02 0.02 0.02 0.03 0.05 0.04 0.04 0.04 0.04 0.04 0.04 0.05 0.05 0.07 0.07 0.08
0.03 0.04 0.07 0.09 0.05 0.03 0.02 0.02 0.02 0.01 0.01 0.01 0.02 0.01 0.01 0.01 0.02 0.03 0.03 0.03 0.03 0.03 0.03 0.03 0.02 0.01 0.01 0.01 0.02 0.02 0.03 0.04 0.04 0.04 0.03 0.03 0.02 0.02 0.03 0.02 0.04 0.06 0.06
0.04 0.07 0.10 0.08 0.04 0.02 0.01 0.02 0.03 0.03 0.02 0.01 0.02 0.02 0.02 0.01 0.01 0.02 0.04 0.05 0.03 0.03 0.03 0.03 0.02 0.01 0.01 0.01 0.01 0.02 0.03 0.04 0.05 0.05 0.05 0.03 0.03 0.03 0.02 0.03 0.03 0.05 0.05
0.01 0.02 0.03 0.03 0.02 0.02 0.02 0.02 0.03 0.03 0.02 0.01 0.02 0.02 0.01 0.01 0.01 0.01 0.02 0.03 0.03 0.04 0.04 0.04 0.02 0.01 0.01 0.00 0.00 0.01 0.03 0.04 0.05 0.05 0.06 0.04 0.04 0.04 0.03 0.03 0.03 0.04 0.04
0.01 0.02 0.02 0.02 0.02 0.02 0.03 0.02 0.03 0.03 0.02 0.02 0.01 0.01 0.01 0.01 0.01 0.01 0.01 0.02 0.04 0.04 0.04 0.04 0.04 0.03 0.01 0.00 0.00 0.00 0.02 0.03 0.04 0.06 0.06 0.05 0.06 0.06 0.05 0.05 0.05 0.04 0.03
0.01 0.02 0.02 0.02 0.02 0.01 0.02 0.02 0.02 0.02 0.02 0.01 0.01 0.01 0.01 0.01 0.01 0.02 0.02 0.03 0.04 0.05 0.05 0.04 0.05 0.05 0.03 0.01 0.01 0.01 0.02 0.02 0.03 0.04 0.05 0.05 0.05 0.07 0.07 0.08 0.07 0.06 0.04
0.01 0.01 0.01 0.02 0.02 0.02 0.02 0.02 0.01 0.01 0.02 0.02 0.01 0.02 0.01 0.01 0.01 0.02 0.03 0.03 0.03 0.04 0.04 0.04 0.04 0.04 0.03 0.02 0.02 0.01 0.02 0.02 0.02 0.03 0.04 0.06 0.08 0.09 0.11 0.12 0.14 0.12 0.07
0.01 0.02 0.03 0.03 0.04 0.05 0.04 0.03 0.02 0.02 0.02 0.02 0.02 0.01 0.01 0.01 0.02 0.02 0.03 0.03 0.03 0.04 0.04 0.04 0.05 0.05 0.04 0.04 0.03 0.02 0.01 0.01 0.02 0.02 0.04 0.07 0.10 0.10 0.12 0.13 0.12 0.12 0.10
0.02 0.03 0.04 0.04 0.05 0.06 0.04 0.03 0.02 0.02 0.02 0.02 0.02 0.03 0.04 0.03 0.03 0.03 0.03 0.03 0.03 0.04 0.04 0.05 0.05 0.05 0.05 0.05 0.04 0.03 0.02 0.01 0.02 0.03 0.04 0.05 0.07 0.08 0.07 0.06 0.06 0.07 0.08
0.02 0.03 0.04 0.05 0.06 0.06 0.07 0.06 0.05 0.03 0.02 0.02 0.02 0.02 0.03 0.04 0.04 0.04 0.04 0.03 0.03 0.03 0.04 0.04 0.03 0.03 0.03 0.03 0.03 0.03 0.02 0.02 0.02 0.03 0.04 0.04 0.04 0.05 0.04 0.04 0.04 0.04 0.05
0.02 0.02 0.04 0.04 0.05 0.05 0.05 0.08 0.08 0.04 0.03 0.02 0.03 0.02 0.03 0.03 0.04 0.06 0.06 0.05 0.04 0.03 0.04 0.04 0.04 0.04 0.03 0.03 0.03 0.03 0.03 0.02 0.02 0.02 0.04 0.04 0.03 0.02 0.02 0.02 0.02 0.02 0.03
0.02 0.02 0.03 0.04 0.04 0.04 0.04 0.04 0.05 0.06 0.05 0.03 0.02 0.01 0.01 0.02 0.02 0.03 0.05 0.06 0.05 0.04 0.03 0.03 0.04 0.05 0.04 0.04 0.04 0.04 0.03 0.02 0.02 0.02 0.03 0.04 0.03 0.02 0.02 0.02 0.02 0.03 0.03
0.03 0.03 0.05 0.04 0.05 0.05 0.06 0.05 0.04 0.04 0.05 0.03 0.02 0.02 0.01 0.02 0.02 0.02 0.03 0.04 0.04 0.03 0.02 0.01 0.02 0.02 0.02 0.02 0.02 0.01 0.01 0.01 0.01 0.02 0.02 0.03 0.03 0.03 0.03 0.02 0.02 0.03 0.04
MSLP
1010.56 1010.92 1011.14 1011.20 1011.11 1010.88 1010.58 1010.26 1009.98 1009.78 1009.68 1009.66 1009.70 1009.76 1009.81 1009.82 1009.76 1009.65 1009.50 1009.33 1009.16 1009.01 1008.88 1008.78 1008.72 1008.69 1008.73 1008.84 1009.05 1009.39 1009.86 1010.47 1011.18 1011.95 1012.73 1013.45 1014.08 1014.57 1014.92 1015.14 1015.30 1015.42 1015.56
1010.96 1011.35 1011.58 1011.63 1011.51 1011.26 1010.94 1010.64 1010.39 1010.24 1010.19 1010.22 1010.29 1010.35 1010.37 1010.31 1010.18 1009.99 1009.78 1009.57 1009.38 1009.24 1009.15 1009.10 1009.07 1009.07 1009.10 1009.17 1009.31 1009.56 1009.93 1010.44 1011.08 1011.81 1012.58 1013.33 1014.02 1014.58 1015.02 1015.32 1015.53 1015.67 1015.80
1011.12 1011.58 1011.87 1011.95 1011.86 1011.63 1011.34 1011.06 1010.86 1010.76 1010.75 1010.82 1010.91 1010.96 1010.95 1010.84 1010.65 1010.40 1010.13 1009.88 1009.69 1009.56 1009.50 1009.48 1009.49 1009.50 1009.51 1009.54 1009.60 1009.74 1010.00 1010.39 1010.93 1011.59 1012.32 1013.08 1013.81 1014.44 1014.96 1015.34 1015.60 1015.78 1015.91
1011.06 1011.62 1012.00 1012.16 1012.13 1011.96 1011.72 1011.49 1011.32 1011.26 1011.29 1011.38 1011.48 1011.54 1011.50 1011.37 1011.14 1010.85 1010.54 1010.28 1010.08 1009.97 1009.92 1009.93 1009.96 1009.97 1009.96 1009.93 1009.92 1009.95 1010.08 1010.35 1010.77 1011.33 1012.00 1012.74 1013.48 1014.16 1014.73 1015.19 1015.51 1015.73 1015.88
1010.84 1011.50 1011.99 1012.26 1012.32 1012.23 1012.05 1011.86 1011.73 1011.69 1011.74 1011.84 1011.95 1012.01 1011.97 1011.83 1011.59 1011.29 1010.99 1010.72 1010.53 1010.42 1010.40 1010.42 1010.46 1010.46 1010.42 1010.35 1010.25 1010.18 1010.20 1010.34 1010.63 1011.08 1011.67 1012.36 1013.08 1013.77 1014.39 1014.90 1015.28 1015.54 1015.71
1010.54 1011.30 1011.90 1012.28 1012.45 1012.44 1012.32 1012.18 1012.07 1012.03 1012.08 1012.17 1012.28 1012.34 1012.32 1012.19 1011.97 1011.69 1011.41 1011.16 1010.98 1010.89 1010.87 1010.90 1010.93 1010.92 1010.86 1010.75 1010.59 1010.45 1010.36 1010.39 1010.56 1010.90 1011.39 1012.00 1012.67 1013.34 1013.97 1014.51 1014.94 1015.25 1015.46
1010.26 1011.09 1011.79 1012.28 1012.54 1012.61 1012.55 1012.43 1012.32 1012.27 1012.29 1012.37 1012.47 1012.53 1012.52 1012.42 1012.24 1012.00 1011.75 1011.53 1011.37 1011.29 1011.27 1011.30 1011.33 1011.32 1011.25 1011.11 1010.92 1010.73 1010.57 1010.51 1010.59 1010.82 1011.20 1011.71 1012.30 1012.93 1013.54 1014.09 1014.54 1014.90 1015.15
1010.06 1010.95 1011.72 1012.29 1012.63 1012.76 1012.74 1012.63 1012.51 1012.44 1012.42 1012.47 1012.54 1012.60 1012.61 1012.55 1012.41 1012.22 1012.00 1011.81 1011.67 1011.60 1011.58 1011.60 1011.62 1011.61 1011.54 1011.41 1011.22 1011.02 1010.83 1010.71 1010.71 1010.84 1011.12 1011.52 1012.02 1012.58 1013.15 1013.68 1014.15 1014.53 1014.84
1009.97 1010.89 1011.71 1012.33 1012.73 1012.90 1012.91 1012.80 1012.67 1012.56 1012.52 1012.53 1012.58 1012.63 1012.65 1012.61 1012.51 1012.35 1012.18 1012.01 1011.88 1011.80 1011.78 1011.79 1011.81 1011.81 1011.76 1011.65 1011.49 1011.30 1011.11 1010.97 1010.92 1010.97 1011.15 1011.45 1011.85 1012.31 1012.82 1013.31 1013.78 1014.19 1014.53
1009.97 1010.91 1011.75 1012.40 1012.83 1013.03 1013.05 1012.95 1012.81 1012.69 1012.61 1012.60 1012.63 1012.68 1012.70 1012.68 1012.61 1012.48 1012.32 1012.16 1012.03 1011.94 1011.90 1011.90 1011.92 1011.93 1011.91 1011.84 1011.73 1011.58 1011.41 1011.27 1011.19 1011.18 1011.27 1011.47 1011.76 1012.13 1012.55 1013.00 1013.44 1013.86 1014.25
1010.05 1010.97 1011.80 1012.45 1012.89 1013.10 1013.14 1013.07 1012.94 1012.82 1012.75 1012.73 1012.76 1012.81 1012.84 1012.83 1012.76 1012.64 1012.49 1012.33 1012.18 1012.06 1012.00 1011.98 1012.00 1012.02 1012.03 1012.01 1011.94 1011.84 1011.72 1011.59 1011.49 1011.43 1011.45 1011.55 1011.73 1012.00 1012.34 1012.73 1013.14 1013.56 1013.97
1010.13 1011.02 1011.82 1012.44 1012.86 1013.09 1013.16 1013.12 1013.04 1012.96 1012.92 1012.93 1012.98 1013.04 1013.09 1013.08 1013.02 1012.90 1012.74 1012.56 1012.39 1012.25 1012.16 1012.12 1012.12 1012.15 1012.18 1012.19 1012.17 1012.11 1012.01 1011.90 1011.78 1011.68 1011.63 1011.65 1011.74 1011.92 1012.17 1012.50 1012.87 1013.27 1013.68
1010.17 1011.01 1011.75 1012.32 1012.73 1012.96 1013.07 1013.09 1013.08 1013.08 1013.11 1013.18 1013.28 1013.37 1013.43 1013.44 1013.38 1013.26 1013.08 1012.88 1012.68 1012.52 1012.40 1012.34 1012.33 1012.35 1012.39 1012.41 1012.41 1012.38 1012.29 1012.17 1012.04 1011.91 1011.80 1011.75 1011.76 1011.85 1012.03 1012.29 1012.62 1012.99 1013.39
1010.16 1010.92 1011.57 1012.08 1012.45 1012.70 1012.85 1012.96 1013.05 1013.15 1013.29 1013.44 1013.61 1013.75 1013.84 1013.86 1013.80 1013.67 1013.49 1013.27 1013.06 1012.88 1012.74 1012.66 1012.64 1012.65 1012.68 1012.70 1012.69 1012.65 1012.55 1012.42 1012.26 1012.09 1011.93 1011.82 1011.78 1011.80 1011.92 1012.12 1012.40 1012.73 1013.09
1010.09 1010.75 1011.30 1011.74 1012.07 1012.33 1012.54 1012.73 1012.94 1013.17 1013.42 1013.68 1013.91 1014.11 1014.23 1014.27 1014.22 1014.09 1013.90 1013.69 1013.48 1013.29 1013.15 1013.07 1013.03 1013.03 1013.03 1013.03 1013.00 1012.92 1012.80 1012.63 1012.43 1012.22 1012.03 1011.88 1011.79 1011.78 1011.85 1012.00 1012.22 1012.50 1012.82
1009.95 1010.51 1010.96 1011.33 1011.63 1011.91 1012.18 1012.47 1012.79 1013.15 1013.51 1013.86 1014.17 1014.40 1014.55 1014.61 1014.56 1014.44 1014.26 1014.06 1013.87 1013.70 1013.58 1013.50 1013.47 1013.45 1013.43 1013.39 1013.32 1013.20 1013.02 1012.81 1012.58 1012.34 1012.11 1011.94 1011.82 1011.78 1011.82 1011.93 1012.11 1012.33 1012.57
1009.78 1010.24 1010.61 1010.92 1011.21 1011.51 1011.85 1012.23 1012.66 1013.12 1013.58 1014.00 1014.35 1014.62 1014.78 1014.82 1014.78 1014.66 1014.50 1014.33 1014.17 1014.04 1013.96 1013.91 1013.89 1013.87 1013.83 1013.76 1013.64 1013.47 1013.24 1012.98 1012.71 1012.44 1012.20 1012.01 1011.88 1011.82 1011.84 1011.92 1012.04 1012.20 1012.37
1009.58 1009.97 1010.29 1010.58 1010.88 1011.22 1011.63 1012.10 1012.62 1013.16 1013.67 1014.13 1014.50 1014.76 1014.90 1014.92 1014.86 1014.74 1014.59 1014.46 1014.35 1014.28 1014.25 1014.25 1014.26 1014.26 1014.22 1014.12 1013.96 1013.74 1013.47 1013.16 1012.85 1012.56 1012.30 1012.10 1011.97 1011.90 1011.90 1011.94 1012.01 1012.10 1012.18
1009.37 1009.75 1010.06 1010.37 1010.71 1011.12 1011.59 1012.14 1012.72 1013.31 1013.84 1014.30 1014.64 1014.85 1014.94 1014.92 1014.83 1014.70 1014.56 1014.46 1014.40 1014.40 1014.44 1014.51 1014.57 1014.59 1014.56 1014.46 1014.28 1014.02 1013.71 1013.37 1013.03 1012.71 1012.43 1012.22 1012.08 1011.99 1011.96 1011.96 1011.97 1011.98 1011.98
1009.18 1009.58 1009.94 1010.31 1010.72 1011.21 1011.76 1012.37 1012.99 1013.59 1014.12 1014.53 1014.81 1014.95 1014.97 1014.88 1014.74 1014.58 1014.46 1014.38 1014.38 1014.44 1014.56 1014.70 1014.82 1014.89 1014.89 1014.79 1014.60 1014.32 1013.98 1013.61 1013.24 1012.90 1012.60 1012.36 1012.19 1012.07 1011.99 1011.93 1011.87 1011.79 1011.70
1009.04 1009.50 1009.95 1010.41 1010.92 1011.49 1012.11 1012.77 1013.41 1014.00 1014.48 1014.83 1015.03 1015.08 1015.01 1014.85 1014.65 1014.46 1014.33 1014.28 1014.33 1014.45 1014.64 1014.85 1015.03 1015.15 1015.19 1015.11 1014.93 1014.64 1014.29 1013.89 1013.49 1013.11 1012.78 1012.50 1012.28 1012.10 1011.95 1011.81 1011.66 1011.50 1011.31
1008.95 1009.52 1010.07 1010.64 1011.25 1011.90 1012.59 1013.27 1013.92 1014.47 1014.90 1015.17 1015.28 1015.23 1015.07 1014.84 1014.59 1014.38 1014.24 1014.22 1014.30 1014.48 1014.72 1014.99 1015.23 1015.40 1015.47 1015.42 1015.25 1014.97 1014.60 1014.18 1013.75 1013.34 1012.96 1012.62 1012.33 1012.07 1011.84 1011.60 1011.35 1011.09 1010.81
1008.96 1009.63 1010.28 1010.95 1011.65 1012.37 1013.09 1013.79 1014.41 1014.92 1015.28 1015.48 1015.50 1015.38 1015.14 1014.86 1014.57 1014.35 1014.22 1014.21 1014.32 1014.54 1014.83 1015.14 1015.42 1015.63 1015.73 1015.70 1015.54 1015.26 1014.89 1014.46 1014.00 1013.54 1013.11 1012.70 1012.34 1011.99 1011.65 1011.31 1010.96 1010.60 1010.23
1009.06 1009.82 1010.56 1011.30 1012.06 1012.81 1013.54 1014.22 1014.81 1015.26 1015.56 1015.68 1015.64 1015.46 1015.19 1014.88 1014.58 1014.36 1014.24 1014.25 1014.39 1014.63 1014.94 1015.28 1015.58 1015.81 1015.93 1015.91 1015.76 1015.49 1015.11 1014.67 1014.18 1013.69 1013.21 1012.74 1012.29 1011.86 1011.43 1010.99 1010.54 1010.09 1009.64
1009.26 1010.07 1010.85 1011.63 1012.40 1013.15 1013.85 1014.49 1015.02 1015.42 1015.66 1015.73 1015.65 1015.45 1015.17 1014.86 1014.58 1014.38 1014.28 1014.31 1014.47 1014.72 1015.04 1015.37 1015.67 1015.90 1016.01 1015.99 1015.85 1015.58 1015.21 1014.76 1014.27 1013.76 1013.24 1012.73 1012.23 1011.73 1011.23 1010.71 1010.19 1009.66 1009.14
1009.53 1010.34 1011.13 1011.89 1012.63 1013.34 1013.99 1014.56 1015.03 1015.36 1015.55 1015.59 1015.50 1015.30 1015.05 1014.77 1014.53 1014.37 1014.30 1014.35 1014.51 1014.76 1015.06 1015.37 1015.64 1015.84 1015.93 1015.91 1015.76 1015.49 1015.13 1014.70 1014.22 1013.72 1013.20 1012.69 1012.17 1011.64 1011.10 1010.54 1009.98 1009.40 1008.84
Thickness
5806 5804 5800 5797 5791 5786 5781 5777 5773 5769 5766 5763 5759 5756 5754 5754 5753 5752 5750 5748 5747 5746 5746 5745 5745 5744 5742 5741 5740 5739 5737 5737 5738 5735 5733 5735 5738 5738 5738 5738 5737 5737 5738
5800 5797 5794 5791 5787 5782 5778 5773 5769 5766 5763 5760 5759 5756 5754 5752 5751 5749 5747 5746 5744 5744 5744 5742 5742 5741 5740 5739 5739 5737 5735 5735 5737 5733 5728 5725 5727 5731 5734 5735 5735 5735 5736
5796 5790 5787 5787 5784 5779 5775 5771 5766 5763 5760 5758 5756 5754 5751 5748 5746 5744 5743 5743 5742 5741 5741 5740 5739 5739 5738 5737 5737 5736 5734 5731 5734 5735 5730 5722 5718 5721 5726 5731 5732 5732 5732
5798 5792 5788 5785 5781 5777 5774 5769 5764 5760 5758 5755 5752 5747 5743 5739 5740 5740 5740 5740 5740 5739 5738 5737 5736 5735 5736 5735 5735 5735 5734 5732 5729 5732 5733 5731 5727 5720 5717 5723 5728 5730 5730
5796 5791 5788 5784 5781 5777 5772 5767 5762 5757 5755 5752 5749 5744 5741 5739 5738 5738 5736 5736 5736 5736 5735 5733 5733 5732 5732 5733 5732 5732 5731 5730 5728 5728 5729 5728 5728 5727 5720 5716 5720 5724 5727
5795 5790 5786 5782 5778 5775 5770 5764 5758 5754 5752 5749 5746 5742 5738 5735 5733 5732 5731 5731 5731 5731 5731 5731 5730 5730 5730 5729 5729 5729 5728 5728 5727 5727 5727 5725 5723 5722 5721 5717 5717 5718 5722
5792 5785 5778 5774 5772 5769 5765 5761 5755 5750 5748 5746 5742 5739 5736 5733 5729 5728 5727 5726 5725 5725 5724 5726 5726 5726 5726 5727 5726 5725 5725 5725 5724 5724 5724 5724 5724 5724 5722 5719 5716 5716 5718
5789 5781 5776 5773 5770 5766 5761 5756 5750 5746 5744 5742 5738 5736 5733 5730 5727 5725 5724 5722 5721 5721 5721 5722 5722 5722 5723 5723 5723 5722 5721 5721 5721 5722 5722 5721 5722 5723 5721 5719 5715 5711 5712
5784 5780 5775 5771 5766 5761 5757 5752 5747 5742 5740 5737 5734 5731 5729 5726 5723 5721 5720 5719 5718 5718 5718 5718 5717 5718 5718 5719 5718 5717 5717 5717 5717 5717 5718 5718 5718 5719 5720 5719 5717 5711 5706
5779 5776 5772 5768 5762 5757 5753 5749 5744 5738 5735 5733 5730 5727 5724 5722 5720 5717 5715 5714 5714 5714 5714 5713 5713 5713 5714 5714 5714 5713 5714 5713 5713 5714 5713 5713 5714 5716 5716 5716 5715 5714 5709
5772 5768 5765 5762 5758 5753 5747 5743 5739 5734 5731 5728 5725 5722 5719 5717 5715 5712 5710 5709 5709 5709 5709 5709 5708 5708 5708 5709 5709 5709 5710 5709 5709 5710 5709 5709 5710 5711 5711 5711 5711 5710 5709
5765 5761 5757 5753 5749 5745 5740 5736 5733 5729 5726 5723 5720 5716 5713 5711 5708 5706 5705 5704 5703 5703 5703 5704 5703 5703 5704 5704 5704 5704 5705 5705 5705 5705 5705 5705 5706 5705 5705 5706 5706 5706 5706
5755 5752 5748 5744 5740 5736 5733 5731 5727 5724 5721 5718 5714 5710 5707 5705 5702 5700 5699 5698 5697 5697 5698 5698 5698 5698 5699 5699 5699 5700 5700 5701 5701 5701 5700 5700 5700 5699 5700 5700 5701 5702 5703
5744 5742 5739 5736 5732 5728 5726 5723 5721 5719 5716 5713 5709 5705 5702 5699 5697 5696 5694 5693 5692 5692 5692 5692 5693 5693 5694 5693 5694 5694 5695 5696 5696 5697 5697 5696 5696 5695 5695 5696 5696 5697 5696
5733 5733 5731 5727 5724 5721 5719 5716 5714 5712 5710 5706 5703 5700 5698 5696 5693 5690 5689 5688 5687 5687 5687 5687 5687 5688 5688 5687 5686 5688 5690 5690 5691 5692 5693 5693 5693 5692 5692 5692 5691 5691 5690
5727 5726 5724 5719 5716 5714 5712 5709 5707 5705 5703 5700 5697 5695 5693 5690 5688 5686 5684 5682 5681 5681 5681 5681 5681 5681 5681 5679 5680 5681 5683 5685 5686 5686 5688 5689 5689 5688 5687 5686 5686 5686 5685
5722 5719 5716 5713 5710 5708 5707 5703 5701 5699 5696 5694 5692 5690 5688 5686 5684 5682 5679 5677 5675 5675 5674 5675 5675 5674 5673 5673 5674 5675 5677 5680 5681 5682 5682 5684 5685 5683 5682 5682 5681 5681 5681
5716 5713 5710 5707 5706 5704 5701 5698 5696 5693 5690 5689 5687 5685 5683 5681 5679 5676 5674 5672 5671 5669 5669 5669 5669 5669 5668 5667 5668 5669 5672 5674 5676 5677 5677 5677 5677 5677 5676 5676 5676 5676 5677
5710 5707 5706 5704 5701 5698 5696 5693 5689 5687 5684 5682 5681 5680 5678 5675 5674 5672 5669 5667 5666 5665 5665 5665 5664 5663 5662 5661 5662 5662 5665 5667 5669 5670 5671 5671 5671 5669 5668 5668 5668 5669 5669
5704 5701 5700 5697 5694 5692 5690 5685 5682 5679 5677 5676 5676 5676 5674 5671 5669 5667 5665 5664 5663 5661 5661 5660 5660 5659 5657 5655 5655 5656 5658 5659 5661 5663 5664 5664 5663 5662 5662 5661 5661 5661 5662
5699 5696 5693 5690 5687 5686 5683 5678 5675 5673 5672 5672 5671 5670 5669 5666 5665 5662 5661 5659 5658 5658 5656 5655 5655 5654 5652 5650 5648 5649 5651 5652 5653 5656 5656 5657 5656 5656 5655 5655 5656 5656 5656
5690 5689 5684 5682 5680 5678 5675 5670 5667 5667 5667 5665 5663 5662 5662 5661 5660 5657 5655 5655 5653 5652 5651 5650 5649 5648 5647 5645 5643 5643 5643 5644 5645 5647 5649 5649 5649 5649 5649 5650 5650 5649 5649
5681 5680 5677 5674 5672 5670 5668 5663 5661 5661 5659 5657 5656 5654 5654 5654 5653 5651 5650 5649 5648 5647 5646 5645 5644 5643 5642 5640 5638 5637 5637 5637 5638 5639 5639 5639 5641 5642 5643 5644 5644 5643 5642
5672 5671 5668 5665 5663 5662 5660 5657 5655 5654 5652 5650 5648 5648 5647 5647 5646 5645 5645 5643 5641 5641 5641 5640 5638 5637 5636 5634 5633 5632 5631 5630 5630 5631 5631 5632 5633 5634 5636 5637 5637 5637 5637
5664 5663 5659 5657 5656 5655 5653 5652 5650 5647 5644 5643 5643 5642 5642 5641 5640 5638 5637 5638 5636 5634 5633 5633 5632 5631 5629 5627 5625 5625 5626 5625 5624 5623 5624 5625 5627 5628 5629 5630 5630 5630 5630
5656 5654 5652 5650 5649 5648 5647 5646 5645 5642 5639 5637 5637 5637 5637 5637 5635 5634 5632 5630 5630 5628 5627 5626 5625 5624 5622 5620 5620 5619 5619 5618 5618 5618 5618 5619 5620 5621 5622 5622 5622 5623 5623